EW5898 Weather Reports


time (UTC)temp
C
wind
direction
speed
KPH
gust
KPH
rain 1hr
cm
rain 24hr
cm
rain mn
cm
humidity
%
barometer
mb
20260503130818 10 71 3.2 3.2 0.00 0.00 0.00 94 1013.7
20260503072806 11 82 0.0 0.0 0.00 0.00 0.00 90 1013.9
20260503071805 11 82 0.0 1.6 0.00 0.00 0.00 90 1013.9
20260503070805 11 82 0.0 3.2 0.00 0.00 0.00 90 1013.8
20260503054806 14 51 0.0 1.6 0.00 0.00 0.00 79 1013.6
20260503054802 14 42 0.0 3.2 0.00 0.00 0.00 79 1013.5
20260503053907 15 329 0.0 1.6 0.00 0.00 0.00 78 1013.5
20260503052801 15 27 0.0 1.6 0.00 0.00 0.00 77 1013.5
20260503050801 15 302 0.0 0.0 0.00 0.00 0.00 78 1013.5
20260503045800 15 278 0.0 0.0 0.00 0.00 0.00 78 1013.4
20260503044802 15 272 0.0 0.0 0.00 0.00 0.00 78 1013.4
20260503043800 15 272 0.0 0.0 0.00 0.00 0.00 79 1013.3
20260503042800 15 272 0.0 0.0 0.00 0.00 0.00 76 1013.2
20260503041800 15 272 0.0 0.0 0.00 0.00 0.00 75 1013.3
20260503040804 16 269 0.0 4.8 0.00 0.00 0.00 75 1013.1
20260503040800 16 292 0.0 4.8 0.00 0.00 0.00 74 1013.2
20260503034758 16 286 1.6 6.4 0.00 0.00 0.00 74 1013.0
20260503033800 16 320 0.0 3.2 0.00 0.00 0.00 75 1012.8
20260503032802 17 272 0.0 4.8 0.00 0.00 0.00 74 1012.7
20260503032758 16 285 0.0 1.6 0.00 0.00 0.00 75 1012.7
20260503030757 17 258 1.6 4.8 0.00 0.00 0.00 74 1012.5
20260503025757 17 235 1.6 6.4 0.00 0.00 0.00 72 1012.6
20260503024802 18 259 4.8 14.5 0.00 0.00 0.00 68 1012.6
20260503024758 17 226 3.2 11.3 0.00 0.00 0.00 70 1012.6
20260503022757 18 307 3.2 9.7 0.00 0.00 0.00 67 1012.6
20260503021802 20 290 4.8 14.5 0.00 0.00 0.00 64 1012.7
20260503021755 18 293 6.4 11.3 0.00 0.00 0.00 66 1012.6
20260503020755 19 279 6.4 14.5 0.00 0.00 0.00 66 1012.6
20260503015755 19 257 4.8 9.7 0.00 0.00 0.00 65 1012.6
20260503013754 20 305 8.0 14.5 0.00 0.00 0.00 64 1012.7
20260503012754 20 282 9.7 19.3 0.00 0.00 0.00 60 1012.8
20260503011757 21 245 6.4 16.1 0.00 0.00 0.00 60 1012.8
20260503011753 21 281 9.7 19.3 0.00 0.00 0.00 60 1012.7
20260503005752 21 261 9.7 17.7 0.00 0.00 0.00 59 1012.8
20260503004757 20 292 8.0 19.3 0.00 0.00 0.00 63 1012.9
20260503004752 21 290 9.7 17.7 0.00 0.00 0.00 61 1012.9
20260503003752 20 278 9.7 17.7 0.00 0.00 0.00 61 1012.9
20260503002750 20 244 8.0 17.7 0.00 0.00 0.00 64 1013.0
20260503000749 21 255 14.5 22.5 0.00 0.00 0.00 60 1013.1
20260502235749 22 258 14.5 22.5 0.00 0.00 0.00 53 1013.0
20260502234750 22 292 14.5 29.0 0.00 0.00 0.00 49 1013.1
20260502233750 21 300 16.1 30.6 0.00 0.00 0.00 50 1013.2
20260502232750 21 238 16.1 25.7 0.00 0.00 0.00 52 1013.2
20260502231750 21 289 9.7 27.4 0.00 0.00 0.00 56 1013.4
20260502230749 21 293 8.0 24.1 0.00 0.00 0.00 58 1013.4
20260502225749 20 286 14.5 22.5 0.00 0.00 0.00 59 1013.6
20260502224748 20 266 12.9 22.5 0.00 0.00 0.00 62 1013.8
20260502223751 20 274 8.0 24.1 0.00 0.00 0.00 67 1013.9
20260502222748 19 269 14.5 24.1 0.00 0.00 0.00 66 1014.0
20260502221748 19 262 14.5 22.5 0.00 0.00 0.00 67 1014.2
20260502220748 19 244 12.9 22.5 0.00 0.00 0.00 68 1014.4
20260502215747 19 288 11.3 32.2 0.00 0.00 0.00 66 1014.4
20260502214747 19 290 14.5 30.6 0.00 0.00 0.00 63 1014.6
20260502213746 19 274 12.9 29.0 0.00 0.00 0.00 63 1014.6
20260502212746 19 278 16.1 27.4 0.00 0.00 0.00 62 1014.9
20260502211746 18 265 11.3 27.4 0.00 0.00 0.00 66 1014.9
20260502210746 18 296 14.5 27.4 0.00 0.00 0.00 65 1015.1
20260502205748 18 274 11.3 20.9 0.00 0.00 0.00 75 1015.2
20260502205743 18 324 12.9 25.7 0.00 0.00 0.00 71 1015.2
20260502203745 18 288 12.9 27.4 0.00 0.00 0.00 75 1015.5
20260502202741 17 250 9.7 24.1 0.00 0.00 0.00 77 1015.4
20260502201744 17 290 9.7 19.3 0.00 0.00 0.00 80 1015.5
20260502200748 17 268 11.3 25.7 0.00 0.00 0.00 81 1015.8
20260502200743 16 245 11.3 22.5 0.00 0.00 0.00 80 1015.7